ONEWEB-0052, 45156

Orbit data source: Space-Track

ONEWEB-0052, 45156 is a payload satellite owned by One Web (UK) in LEO that was launched on Thu, 06 Feb 2020 UTC via a SOYUZ-2-1B launch vehicle from the Tyuratam Missile And Space Complex (TTMTR). Payload-class satellites include a variety of spacecraft equipped with specific instruments for various scientific and technological missions. These include communications satellites like Starlink; space stations such as the ISS; scientific satellites like the Hubble; Earth observation satellites from companies like Planet Labs, Umbra, and HawkEye 360; GPS; miniature CubeSats for education and research; and military/defense satellites.

Loading next visibility...
Identifier
45156, 2020-008AB
Orbit
LEO
Country
Flag of UKUK
Related business
Manufacturer
One Web
Mission
Operational Commercial Communications
Bus & Motor
ARROW, Unknown motor
Mass
148 kg wet, ~140 kg dry
Launch date (UTC)
2020-02-06 (6 years ago)
Launch vehicle
SOYUZ-2-1B
Launch site
Tyuratam Missile And Space Complex (TTMTR)
Object type
Payload
Rocket body
Debris
Shape & HBR
Trap Box + 2 Pan, 6.7 m
Radar Cross Section
3.464 m², Large (>1 m²)

Expand to show TLE details & history
Last TLE update: 5 hours ago

TLE from 5 hours ago
0 ONEWEB-0052
1 45156U 20008AB  25304.29823157  .00000685  00000-0  19247-2 0  9996
2 45156  87.8786  81.8702 0001266  79.8249 280.3022 13.10377037277967
Epoch: 2025-10-31T07:09Z
TLE epoch observation values (Epoch: 2025-10-31T07:09:27.207Z)
Latitude
0.00006°
Longitude
-65.33783°
Altitude
1,224.416 km
Speed
7.242 km/s
True Right ascension
05h 27m 28s
True Declination
0° 00' 00"
Sunlit
Object was in full shadow at epoch
Visualization orbit readout
Latitude
Unknown
Longitude
Unknown
Altitude
Unknown
Speed
Unknown
Apparent Right ascension
Unknown
Apparent Declination
Unknown
Sunlit
N/A
Visualization observer readout
Local Sidereal Time
08:06:35
Azimuth
Unknown
Elevation
Unknown
Doppler factor
Unknown
Orbital elements
Apogee altitude
1,219.782 km
Perigee altitude
1,217.859 km
Semi-major axis
7,596.958 km
Eccentricity
0.00013
Inclination
87.8786°
RAAN
81.8702°
Arg. of periapsis
79.8249°
True anomaly
280.28793°
Mean anomaly
280.3022°
Eccentric anomaly
280.29506°
Mean motion
3.27781 °/min
Orbital period
109.83 mins
BSTAR
0.0019247
Loading maneuver chart data...
Computing Atmospheric mass density...
Loading historical data...
Loading historical data...
Loading historical data...
Loading historical data...
Loading historical data...
Loading historical data...
Loading historical data...

Documentation

Showing up to 5 results
|